User: anonymous   Login
Location: Unspecified
(0.0000°N, 0.0000°E)
Time: 10:25:29
(UTC+02:00)
Language:

Cosmos 1092 Rocket - Orbit

View from above orbital plane
View from above orbital plane
View from above satellite
View from above satellite

Ground track
Ground track

The orbit data is extracted from the following two-line orbital elements,

1 11327U 79030B   16236.52450204  .00000052  00000-0  37747-4 0  9992
2 11327  82.9525 156.8829 0026446 294.6957 185.4689 13.76967221878176
Epoch (UTC): 23 August 2016 12:35:16
Eccentricity: 0.0026446
inclination: 82.9525°
perigee height: 955 km
apogee height: 994 km
right ascension of ascending node: 156.8829°
argument of perigee: 294.6957°
revolutions per day: 13.76967221
mean anomaly at epoch: 185.4689°
orbit number at epoch: 87817

The dashed part of the orbit path shows where the satellite is in the earth's shadow,  

DLR